User: anonymous   Login
Location: *
(45.9500°N, 9.0833°E)
Time: 12:14:36
(UTC+00:00)
Language:

SR - Orbit

View from above orbital plane
View from above orbital plane
View from above satellite
View from above satellite

Ground track
Ground track

The orbit data is extracted from the following two-line orbital elements,

1    46U 60007B   21164.16060834 -.00000018  00000-0  19619-4 0  9995
2    46  66.6886 151.7893 0215432 223.7967 134.5883 14.49406917191377
Epoch (UTC): 13 June 2021 03:51:16
Eccentricity: 0.0215432
inclination: 66.6886°
perigee height: 574 km
apogee height: 880 km
right ascension of ascending node: 151.7893°
argument of perigee: 223.7967°
revolutions per day: 14.49406917
mean anomaly at epoch: 134.5883°
orbit number at epoch: 19137

The dashed part of the orbit path shows where the satellite is in the earth's shadow,  

DLR